Weather History for Guymon, OK

Change the Weather History Date:

Friday, October 11, 2013

  Actual Average Record
Temperature  
Mean Temperature 61 °F 59 °F  
Max Temperature 77 °F 74 °F 90 °F (2012)
Min Temperature 44 °F 44 °F 37 °F (2001)
Degree Days  
Heating Degree Days 4 7  
Month to date heating degree days 30 62  
Since 1 July heating degree days 38 105  
Cooling Degree Days 0 1  
Month to date cooling degree days 25 20  
Year to date cooling degree days 1846 1474  
Growing Degree Days 10 (Base 50)    
Moisture  
Dew Point 36 °F    
Average Humidity 44    
Maximum Humidity 70    
Minimum Humidity 18    
Precipitation  
Precipitation 0.00 in 0.06 in 0.98 in (2008)
Month to date precipitation 0.51 0.66  
Year to date precipitation 13.83 17.22  
Snow  
Snow 0.00 in - - ()
Month to date snowfall 0.0  
Since 1 July snowfall 0.0  
Since 1 September snowfall 0.0  
Snow Depth 0.00 in    
Sea Level Pressure  
Sea Level Pressure 29.72 in    
Wind  
Wind Speed 10 mph (SSW)    
Max Wind Speed 23 mph    
Max Gust Speed 29 mph    
Visibility 10 miles    
Events      
T = Trace of Precipitation, MM = Missing Value Source: NWS Daily Summary

Daily Weather History Graph

Daily Weather History Graph

Search for Another Location

Airport:

Trip Planner

Search our weather history database for the weather conditions in past years. The results will help you decide how hot, cold, wet, or windy it might be!

Date:

Astronomy

Oct. 11, 2013 Rise Set
Actual Time 7:50 AM CDT 7:14 PM CDT
Civil Twilight 7:24 AM CDT 7:40 PM CDT
Nautical Twilight 6:54 AM CDT 8:10 PM CDT
Astronomical Twilight 6:24 AM CDT 8:40 PM CDT
Moon 2:28 PM CDT (10/11) 12:01 AM CDT (10/11)
Length of Visible Light 12h 16m
Length of Day
11h 24m
Waxing Crescent, 47% of the Moon is Illuminated
Oct 11
Waxing Crescent
Oct 11
First Quarter
Oct 18
Full
Oct 26
Last Quarter
Nov 3
New

Hourly Weather History & Observations

Time (CDT) Temp. Windchill Dew Point Humidity Pressure Visibility Wind Dir Wind Speed Gust Speed Precip Events Conditions
12:53 AM 61.0 °F - 46.0 °F 58% 29.66 in 10.0 mi SW 13.8 mph - N/A   Clear
1:53 AM 57.9 °F - 44.1 °F 60% 29.64 in 10.0 mi SSW 11.5 mph - N/A   Clear
2:53 AM 55.0 °F - 39.9 °F 57% 29.64 in 10.0 mi SSW 11.5 mph - N/A   Clear
3:53 AM 52.0 °F - 37.0 °F 57% 29.64 in 10.0 mi SW 11.5 mph - N/A   Clear
4:53 AM 48.0 °F - 37.0 °F 66% 29.65 in 10.0 mi SSW 8.1 mph - N/A   Clear
5:53 AM 50.0 °F - 33.1 °F 52% 29.65 in 10.0 mi SSW 11.5 mph - N/A   Clear
6:53 AM 45.0 °F 39.3 °F 35.1 °F 68% 29.67 in 10.0 mi SSW 11.5 mph - N/A   Clear
7:53 AM 45.0 °F 39.3 °F 34.0 °F 65% 29.68 in 10.0 mi South 11.5 mph - N/A   Clear
8:53 AM 48.0 °F - 35.1 °F 61% 29.72 in 10.0 mi SSW 11.5 mph - N/A   Clear
9:53 AM 57.0 °F - 34.0 °F 42% 29.71 in 10.0 mi SW 15.0 mph - N/A   Clear
10:53 AM 61.0 °F - 35.1 °F 38% 29.71 in 10.0 mi SW 18.4 mph - N/A   Clear
11:53 AM 64.0 °F - 35.1 °F 34% 29.71 in 10.0 mi SW 17.3 mph - N/A   Clear
12:53 PM 69.1 °F - 34.0 °F 27% 29.70 in 10.0 mi West 10.4 mph - N/A   Clear
1:53 PM 72.0 °F - 32.0 °F 23% 29.68 in 10.0 mi SW 6.9 mph - N/A   Clear
2:53 PM 73.9 °F - 30.9 °F 21% 29.67 in 10.0 mi Variable 3.5 mph - N/A   Clear
3:53 PM 75.0 °F - 28.9 °F 18% 29.68 in 10.0 mi Calm Calm - N/A   Clear
4:53 PM 75.9 °F - 28.0 °F 17% 29.70 in 10.0 mi Calm Calm - N/A   Clear
5:53 PM 75.0 °F - 32.0 °F 21% 29.71 in 10.0 mi East 4.6 mph - N/A   Clear
6:53 PM 70.0 °F - 35.1 °F 28% 29.75 in 10.0 mi ESE 4.6 mph - N/A   Clear
7:53 PM 64.9 °F - 36.0 °F 34% 29.78 in 10.0 mi ESE 9.2 mph - N/A   Clear
8:53 PM 57.9 °F - 42.1 °F 56% 29.84 in 10.0 mi NNE 10.4 mph - N/A   Clear
9:53 PM 59.0 °F - 42.1 °F 53% 29.85 in 10.0 mi NE 11.5 mph - N/A   Clear
10:53 PM 57.9 °F - 43.0 °F 58% 29.86 in 10.0 mi NE 16.1 mph 23.0 mph N/A   Clear
11:53 PM 55.0 °F - 43.0 °F 64% 29.90 in 10.0 mi NE 10.4 mph - N/A   Clear